Torna al catalogo

STARLINK-38057

AttivoComunicazioniSSO
NORAD 69978·PAYLOAD·🇺🇸 United States

Lanciato Jul 11, 2026 da Vandenberg Space Force Base

Loading…

Prossimi Passaggi (prossime 24 ore)

TLE

AggiornatoSource: CelesTrak SupGP

Epoca: Sep 15, 2026, 03:58 UTC

1 69978C 26159D   26258.16576389 -.00045672  00000+0 -84142-3 0  2585
2 69978  97.2850  99.9054 0001421  99.9466 111.5475 15.49213528    14

Traccia STARLINK-38057 in tempo reale con AllMySat

Download on the App Store